| time (UTC) | temp F | wind direction | speed knots | gust knots | rain 1hr in | rain 24hr in | rain mn in | humidity % | barometer mb |
| 20260906023046 | 58 | 0 | 0.0 | 1.7 | 0.03 | 0.15 | 0.15 | 95 | 1014.0 |
| 20260906021545 | 58 | 0 | 0.0 | 0.9 | 0.06 | 0.14 | 0.14 | 94 | 1013.9 |
| 20260906020053 | 58 | 0 | 0.0 | 0.0 | 0.07 | 0.13 | 0.13 | 94 | 1014.0 |
| 20260906014546 | 58 | 0 | 0.0 | 0.0 | 0.09 | 0.13 | 0.13 | 94 | 1013.9 |
| 20260906013047 | 58 | 0 | 0.0 | 0.0 | 0.11 | 0.12 | 0.12 | 94 | 1014.0 |
| 20260906011555 | 59 | 0 | 0.0 | 1.7 | 0.07 | 0.07 | 0.07 | 93 | 1014.1 |
| 20260906010043 | 59 | 0 | 0.0 | 0.0 | 0.05 | 0.05 | 0.05 | 92 | 1013.9 |
| 20260906004544 | 59 | 0 | 0.0 | 0.0 | 0.04 | 0.04 | 0.04 | 91 | 1013.7 |
| 20260906003046 | 60 | 0 | 0.0 | 1.7 | 0.01 | 0.01 | 0.01 | 90 | 1013.7 |
| 20260906001543 | 61 | 0 | 0.0 | 2.6 | 0.00 | 0.00 | 0.00 | 87 | 1013.6 |
| 20260906000042 | 62 | 0 | 0.0 | 2.6 | 0.00 | 0.00 | 0.00 | 86 | 1013.5 |
| 20260905234541 | 63 | 0 | 0.0 | 0.9 | 0.00 | 0.00 | 0.00 | 87 | 1013.3 |
| 20260905233102 | 63 | 0 | 0.0 | 1.7 | 0.00 | 0.00 | 0.00 | 86 | 1013.1 |
| 20260905231551 | 64 | 325 | 0.0 | 1.7 | 0.00 | 0.00 | 0.00 | 85 | 1012.9 |
| 20260905230051 | 64 | 0 | 0.0 | 0.9 | 0.00 | 0.00 | 0.00 | 83 | 1012.8 |
| 20260905224605 | 65 | 0 | 0.0 | 0.0 | 0.00 | 0.00 | 0.00 | 82 | 1012.5 |
| 20260905223041 | 66 | 0 | 0.0 | 2.6 | 0.00 | 0.00 | 0.00 | 81 | 1012.3 |
| 20260905221542 | 66 | 0 | 0.0 | 1.7 | 0.00 | 0.00 | 0.00 | 81 | 1012.2 |
| 20260905220048 | 67 | 0 | 0.0 | 0.0 | 0.00 | 0.00 | 0.00 | 82 | 1012.2 |
| 20260905214545 | 67 | 0 | 0.0 | 0.0 | 0.00 | 0.00 | 0.00 | 81 | 1011.9 |
| 20260905213043 | 67 | 0 | 0.0 | 0.0 | 0.00 | 0.00 | 0.00 | 79 | 1011.8 |
| 20260905211543 | 67 | 0 | 0.0 | 0.0 | 0.00 | 0.00 | 0.00 | 78 | 1011.6 |
| 20260905210049 | 68 | 0 | 0.0 | 0.9 | 0.00 | 0.00 | 0.00 | 76 | 1011.6 |
| 20260905204544 | 69 | 0 | 0.0 | 0.9 | 0.00 | 0.00 | 0.00 | 76 | 1011.5 |
| 20260905203043 | 69 | 0 | 0.0 | 2.6 | 0.00 | 0.00 | 0.00 | 73 | 1011.5 |
| 20260905201542 | 70 | 217 | 0.0 | 2.6 | 0.00 | 0.00 | 0.00 | 71 | 1011.5 |
| 20260905200048 | 71 | 0 | 0.0 | 2.6 | 0.00 | 0.00 | 0.00 | 71 | 1011.5 |
| 20260905194541 | 71 | 0 | 0.0 | 2.6 | 0.00 | 0.00 | 0.00 | 74 | 1011.4 |
| 20260905193046 | 69 | 338 | 0.0 | 1.7 | 0.00 | 0.00 | 0.00 | 75 | 1011.4 |
| 20260905191548 | 69 | 0 | 0.0 | 3.5 | 0.00 | 0.00 | 0.00 | 75 | 1011.5 |
| 20260905190059 | 69 | 0 | 0.0 | 1.7 | 0.00 | 0.00 | 0.00 | 73 | 1011.6 |
| 20260905184558 | 69 | 340 | 0.0 | 3.5 | 0.00 | 0.00 | 0.00 | 75 | 1011.6 |
| 20260905183043 | 68 | 6 | 0.0 | 1.7 | 0.00 | 0.00 | 0.00 | 75 | 1011.5 |
| 20260905181542 | 69 | 0 | 0.0 | 2.6 | 0.00 | 0.00 | 0.00 | 74 | 1011.5 |
| 20260905180050 | 69 | 0 | 0.0 | 2.6 | 0.00 | 0.00 | 0.00 | 74 | 1011.6 |
| 20260905174558 | 69 | 0 | 0.0 | 1.7 | 0.00 | 0.00 | 0.00 | 74 | 1011.6 |
| 20260905173041 | 69 | 0 | 0.0 | 2.6 | 0.00 | 0.00 | 0.00 | 74 | 1011.6 |
| 20260905171540 | 69 | 353 | 0.0 | 2.6 | 0.00 | 0.00 | 0.00 | 74 | 1011.3 |
| 20260905170044 | 69 | 0 | 0.0 | 4.3 | 0.00 | 0.00 | 0.00 | 75 | 1011.4 |
| 20260905164544 | 68 | 348 | 0.0 | 2.6 | 0.00 | 0.00 | 0.00 | 79 | 1011.4 |
| 20260905163050 | 69 | 0 | 0.0 | 2.6 | 0.00 | 0.00 | 0.00 | 75 | 1011.4 |
| 20260905161544 | 68 | 0 | 0.0 | 2.6 | 0.00 | 0.00 | 0.00 | 80 | 1011.5 |
| 20260905160044 | 67 | 126 | 0.0 | 1.7 | 0.00 | 0.00 | 0.00 | 82 | 1011.5 |
| 20260905154552 | 67 | 113 | 0.0 | 5.2 | 0.00 | 0.00 | 0.00 | 79 | 1011.5 |
| 20260905153046 | 68 | 311 | 0.9 | 2.6 | 0.00 | 0.00 | 0.00 | 76 | 1011.5 |
| 20260905151544 | 67 | 0 | 0.0 | 2.6 | 0.00 | 0.00 | 0.00 | 80 | 1011.5 |
| 20260905150043 | 67 | 17 | 0.9 | 5.2 | 0.00 | 0.00 | 0.00 | 80 | 1011.5 |
| 20260905144546 | 65 | 0 | 0.0 | 1.7 | 0.00 | 0.00 | 0.00 | 84 | 1011.4 |
| 20260905143043 | 65 | 0 | 0.0 | 4.3 | 0.00 | 0.00 | 0.00 | 86 | 1011.6 |
| 20260905141546 | 63 | 0 | 0.0 | 2.6 | 0.00 | 0.00 | 0.00 | 88 | 1011.4 |
| 20260905140047 | 63 | 0 | 0.0 | 3.5 | 0.00 | 0.00 | 0.00 | 90 | 1011.6 |
| 20260905134541 | 62 | 0 | 0.0 | 1.7 | 0.00 | 0.00 | 0.00 | 91 | 1011.5 |
| 20260905133042 | 61 | 92 | 0.0 | 1.7 | 0.00 | 0.00 | 0.00 | 94 | 1011.2 |
| 20260905131559 | 60 | 0 | 0.0 | 2.6 | 0.00 | 0.00 | 0.00 | 96 | 1011.2 |
| 20260905130045 | 59 | 0 | 0.0 | 0.0 | 0.00 | 0.00 | 0.00 | 97 | 1011.3 |
| 20260905124548 | 59 | 0 | 0.0 | 0.9 | 0.00 | 0.00 | 0.00 | 97 | 1011.4 |
| 20260905123053 | 58 | 0 | 0.0 | 0.0 | 0.00 | 0.00 | 0.00 | 97 | 1011.4 |
| 20260905121545 | 57 | 0 | 0.0 | 0.0 | 0.00 | 0.00 | 0.00 | 97 | 1011.2 |
| 20260905120043 | 56 | 0 | 0.0 | 0.0 | 0.00 | 0.00 | 0.00 | 97 | 1011.4 |
| 20260905114545 | 56 | 0 | 0.0 | 0.0 | 0.00 | 0.00 | 0.00 | 97 | 1011.4 |
| 20260905113044 | 56 | 0 | 0.0 | 0.0 | 0.00 | 0.00 | 0.00 | 97 | 1011.1 |
| 20260905111551 | 55 | 0 | 0.0 | 0.0 | 0.00 | 0.00 | 0.00 | 97 | 1010.9 |
| 20260905110041 | 55 | 0 | 0.0 | 0.0 | 0.00 | 0.00 | 0.00 | 97 | 1010.8 |
| 20260905104540 | 55 | 0 | 0.0 | 1.7 | 0.00 | 0.00 | 0.00 | 97 | 1010.8 |
| 20260905103045 | 54 | 0 | 0.0 | 0.0 | 0.00 | 0.00 | 0.00 | 96 | 1010.7 |
| 20260905101552 | 53 | 0 | 0.0 | 0.0 | 0.00 | 0.00 | 0.00 | 96 | 1010.5 |
| 20260905100041 | 53 | 0 | 0.0 | 0.0 | 0.00 | 0.00 | 0.00 | 96 | 1010.4 |
| 20260905094543 | 53 | 0 | 0.0 | 0.0 | 0.00 | 0.00 | 0.00 | 96 | 1010.3 |
| 20260905093044 | 53 | 0 | 0.0 | 0.0 | 0.00 | 0.00 | 0.00 | 95 | 1010.3 |
| 20260905091541 | 53 | 0 | 0.0 | 0.0 | 0.00 | 0.00 | 0.00 | 95 | 1010.3 |
| 20260905090049 | 53 | 118 | 0.0 | 1.7 | 0.00 | 0.00 | 0.00 | 95 | 1010.2 |
| 20260905084600 | 54 | 0 | 0.0 | 0.0 | 0.00 | 0.00 | 0.00 | 95 | 1010.3 |
| 20260905083041 | 54 | 0 | 0.0 | 0.0 | 0.00 | 0.00 | 0.00 | 95 | 1010.2 |
| 20260905081544 | 54 | 0 | 0.0 | 0.0 | 0.00 | 0.00 | 0.00 | 95 | 1010.2 |
| 20260905080041 | 54 | 0 | 0.0 | 0.0 | 0.00 | 0.00 | 0.00 | 95 | 1010.2 |
| 20260905074544 | 54 | 0 | 0.0 | 0.0 | 0.00 | 0.00 | 0.00 | 95 | 1010.1 |
| 20260905073043 | 55 | 0 | 0.0 | 0.0 | 0.00 | 0.00 | 0.00 | 94 | 1010.3 |
| 20260905071541 | 55 | 0 | 0.0 | 0.0 | 0.00 | 0.00 | 0.00 | 95 | 1010.4 |
| 20260905070043 | 55 | 0 | 0.0 | 0.0 | 0.00 | 0.00 | 0.00 | 95 | 1010.4 |
| 20260905064544 | 56 | 0 | 0.0 | 0.0 | 0.00 | 0.00 | 0.00 | 94 | 1010.7 |
| 20260905063049 | 56 | 0 | 0.0 | 0.0 | 0.00 | 0.00 | 0.00 | 94 | 1010.7 |
| 20260905061541 | 56 | 0 | 0.0 | 0.0 | 0.00 | 0.00 | 0.00 | 94 | 1010.7 |
| 20260905060044 | 56 | 0 | 0.0 | 0.9 | 0.00 | 0.00 | 0.00 | 94 | 1010.7 |
| 20260905054546 | 57 | 0 | 0.0 | 0.0 | 0.00 | 0.00 | 0.00 | 94 | 1010.6 |
| 20260905053050 | 57 | 0 | 0.0 | 0.0 | 0.00 | 0.00 | 0.00 | 93 | 1010.6 |
| 20260905051542 | 57 | 0 | 0.0 | 0.0 | 0.00 | 0.00 | 0.00 | 93 | 1010.6 |
| 20260905050043 | 58 | 0 | 0.0 | 1.7 | 0.00 | 0.00 | 0.00 | 93 | 1010.7 |
| 20260905044548 | 58 | 0 | 0.0 | 0.0 | 0.00 | 0.00 | 0.00 | 93 | 1010.8 |
| 20260905043047 | 58 | 0 | 0.0 | 0.0 | 0.00 | 0.00 | 0.00 | 92 | 1010.9 |
| 20260905041542 | 59 | 0 | 0.0 | 0.0 | 0.00 | 0.00 | 0.00 | 92 | 1010.8 |
| 20260905040048 | 59 | 0 | 0.0 | 0.0 | 0.00 | 0.00 | 0.00 | 91 | 1010.9 |
| 20260905034547 | 60 | 0 | 0.0 | 0.0 | 0.00 | 0.00 | 0.00 | 90 | 1010.9 |
| 20260905033042 | 61 | 0 | 0.0 | 0.0 | 0.00 | 0.00 | 0.00 | 90 | 1010.9 |
| 20260905031542 | 61 | 0 | 0.0 | 0.0 | 0.00 | 0.00 | 0.00 | 89 | 1011.0 |
| 20260905030043 | 62 | 0 | 0.0 | 0.0 | 0.00 | 0.00 | 0.00 | 88 | 1010.9 |
| 20260905024606 | 62 | 0 | 0.0 | 0.0 | 0.00 | 0.00 | 0.00 | 87 | 1011.1 |